Location: Asheville, NC
(35.6000°N, 82.5500°W)
Time: 06:04:23
(UTC-05:00)

Tiangong 2 - Pass Details

Date: 15 October 2017
Orbit: 387 x 389 km, 42.8° (Epoch: 18 December)

Event Time Altitude Azimuth Distance (km) Brightness Sun altitude
Exits shadow 07:08:54 - 305° (NW) 1,740 3.8 -6.5°
Reaches altitude 10° 07:09:46 10° 311° (NW) 1,417 3.4 -6.3°
Maximum altitude 07:12:37 29° 14° (NNE) 747 2.6 -5.7°
Drops below altitude 10° 07:15:28 10° 77° (ENE) 1,417 5.3 -5.1°
Sets 07:17:43 0° 89° (E) 2,272 7.4 -4.7°
